QPF
0.01 0.01 0.00 0.00 0.00 0.01 0.01 0.01 0.01 0.01 0.01 0.01 0.01 0.01 0.01 0.01 0.01 0.01 0.01 0.01 0.02 0.02 0.02 0.04 0.04 0.06 0.07 0.05 0.04 0.04 0.06 0.10 0.08 0.05 0.04 0.04 0.04 0.04 0.05 0.05 0.05 0.04 0.03 0.03 0.04 0.05 0.05 0.04 0.02
0.00 0.00 0.00 0.00 0.00 0.00 0.00 0.00 0.01 0.01 0.01 0.01 0.01 0.01 0.01 0.01 0.01 0.01 0.01 0.01 0.01 0.02 0.02 0.03 0.04 0.06 0.07 0.06 0.05 0.06 0.08 0.09 0.06 0.04 0.03 0.04 0.03 0.04 0.03 0.05 0.05 0.05 0.05 0.04 0.03 0.03 0.05 0.04 0.03
0.01 0.00 0.01 0.01 0.00 0.00 0.00 0.00 0.01 0.02 0.01 0.01 0.01 0.01 0.01 0.01 0.01 0.01 0.02 0.02 0.02 0.02 0.03 0.04 0.05 0.06 0.07 0.05 0.04 0.05 0.05 0.04 0.04 0.04 0.05 0.07 0.06 0.05 0.04 0.05 0.06 0.06 0.06 0.06 0.04 0.03 0.03 0.03 0.02
0.01 0.01 0.01 0.01 0.01 0.00 0.00 0.00 0.01 0.01 0.02 0.01 0.01 0.01 0.01 0.01 0.01 0.01 0.02 0.02 0.02 0.03 0.03 0.04 0.04 0.05 0.07 0.05 0.03 0.04 0.03 0.04 0.03 0.03 0.03 0.04 0.05 0.04 0.05 0.05 0.05 0.05 0.05 0.04 0.04 0.04 0.02 0.02 0.01
0.02 0.02 0.02 0.01 0.01 0.00 0.00 0.00 0.00 0.01 0.01 0.01 0.01 0.01 0.01 0.01 0.02 0.02 0.02 0.02 0.03 0.04 0.04 0.04 0.05 0.05 0.07 0.06 0.03 0.03 0.03 0.03 0.03 0.02 0.03 0.03 0.04 0.04 0.04 0.04 0.03 0.04 0.04 0.03 0.03 0.03 0.03 0.02 0.01
0.02 0.02 0.02 0.01 0.00 0.00 0.00 0.00 0.00 0.00 0.00 0.01 0.01 0.01 0.01 0.01 0.01 0.02 0.03 0.02 0.02 0.04 0.06 0.05 0.05 0.06 0.07 0.06 0.03 0.03 0.03 0.02 0.02 0.02 0.02 0.03 0.03 0.03 0.03 0.03 0.02 0.02 0.03 0.03 0.03 0.03 0.02 0.02 0.01
0.01 0.02 0.02 0.01 0.01 0.00 0.00 0.00 0.00 0.00 0.00 0.01 0.01 0.01 0.01 0.01 0.02 0.03 0.03 0.03 0.02 0.03 0.05 0.06 0.05 0.05 0.07 0.07 0.05 0.04 0.03 0.02 0.02 0.02 0.02 0.02 0.03 0.02 0.02 0.02 0.01 0.01 0.02 0.02 0.03 0.02 0.02 0.02 0.01
0.00 0.01 0.01 0.01 0.01 0.00 0.00 0.01 0.00 0.00 0.00 0.00 0.01 0.01 0.01 0.02 0.02 0.04 0.03 0.03 0.03 0.03 0.04 0.05 0.04 0.04 0.05 0.05 0.05 0.04 0.02 0.01 0.01 0.02 0.02 0.02 0.02 0.02 0.02 0.02 0.02 0.01 0.01 0.02 0.02 0.03 0.03 0.02 0.02
0.01 0.01 0.01 0.00 0.00 0.00 0.00 0.01 0.00 0.00 0.00 0.00 0.01 0.01 0.01 0.02 0.03 0.05 0.05 0.03 0.03 0.03 0.04 0.06 0.05 0.05 0.05 0.04 0.04 0.04 0.03 0.02 0.01 0.01 0.01 0.01 0.00 0.00 0.00 0.01 0.01 0.01 0.01 0.02 0.02 0.03 0.02 0.02 0.01
0.01 0.01 0.01 0.00 0.00 0.00 0.00 0.00 0.00 0.00 0.00 0.00 0.00 0.01 0.01 0.02 0.04 0.06 0.08 0.04 0.03 0.03 0.04 0.05 0.05 0.06 0.05 0.03 0.03 0.04 0.03 0.03 0.01 0.01 0.01 0.01 0.00 0.00 0.00 0.00 0.00 0.01 0.01 0.01 0.01 0.01 0.03 0.03 0.01
0.01 0.01 0.00 0.00 0.00 0.00 0.00 0.00 0.00 0.01 0.01 0.01 0.01 0.01 0.02 0.02 0.04 0.06 0.09 0.07 0.04 0.04 0.04 0.05 0.04 0.05 0.04 0.03 0.03 0.04 0.04 0.04 0.02 0.01 0.01 0.01 0.01 0.01 0.01 0.00 0.00 0.00 0.01 0.01 0.01 0.00 0.01 0.03 0.03
0.00 0.00 0.00 0.00 0.00 0.00 0.00 0.00 0.00 0.01 0.01 0.01 0.01 0.01 0.01 0.03 0.04 0.06 0.08 0.08 0.06 0.04 0.04 0.05 0.04 0.04 0.02 0.02 0.02 0.03 0.03 0.03 0.03 0.02 0.01 0.01 0.01 0.01 0.01 0.01 0.01 0.01 0.01 0.01 0.01 0.01 0.01 0.02 0.02
0.01 0.00 0.00 0.00 0.00 0.00 0.00 0.00 0.00 0.00 0.00 0.01 0.01 0.02 0.01 0.03 0.04 0.05 0.08 0.10 0.08 0.06 0.05 0.05 0.05 0.04 0.02 0.02 0.02 0.02 0.02 0.03 0.02 0.02 0.01 0.01 0.01 0.01 0.01 0.01 0.01 0.01 0.00 0.01 0.01 0.00 0.01 0.02 0.02
0.02 0.01 0.01 0.00 0.00 0.00 0.00 0.01 0.01 0.00 0.00 0.01 0.01 0.02 0.02 0.02 0.03 0.04 0.06 0.08 0.08 0.07 0.06 0.05 0.05 0.06 0.03 0.02 0.02 0.01 0.01 0.02 0.02 0.02 0.01 0.01 0.01 0.01 0.02 0.03 0.03 0.03 0.02 0.02 0.02 0.02 0.02 0.02 0.02
0.01 0.01 0.02 0.01 0.01 0.00 0.01 0.01 0.01 0.01 0.00 0.00 0.01 0.01 0.02 0.02 0.02 0.03 0.06 0.07 0.07 0.06 0.06 0.06 0.05 0.05 0.04 0.04 0.03 0.02 0.01 0.01 0.01 0.01 0.01 0.01 0.01 0.00 0.01 0.02 0.02 0.02 0.03 0.03 0.03 0.03 0.03 0.04 0.03
0.01 0.01 0.02 0.02 0.01 0.01 0.01 0.02 0.01 0.01 0.01 0.01 0.00 0.01 0.01 0.02 0.02 0.03 0.04 0.06 0.08 0.06 0.05 0.05 0.05 0.03 0.02 0.02 0.02 0.02 0.02 0.01 0.01 0.01 0.01 0.01 0.01 0.01 0.00 0.00 0.00 0.00 0.01 0.01 0.02 0.03 0.04 0.05 0.05
0.00 0.01 0.01 0.01 0.01 0.02 0.03 0.02 0.01 0.01 0.01 0.01 0.01 0.00 0.01 0.01 0.02 0.03 0.04 0.05 0.07 0.07 0.05 0.04 0.04 0.03 0.02 0.01 0.01 0.01 0.02 0.02 0.02 0.02 0.01 0.01 0.01 0.01 0.01 0.00 0.00 0.00 0.00 0.00 0.00 0.00 0.01 0.01 0.02
0.00 0.00 0.00 0.00 0.01 0.01 0.02 0.02 0.02 0.01 0.01 0.01 0.01 0.01 0.01 0.01 0.02 0.03 0.04 0.06 0.07 0.08 0.06 0.04 0.03 0.02 0.02 0.02 0.01 0.01 0.01 0.01 0.02 0.02 0.01 0.01 0.01 0.01 0.01 0.00 0.00 0.00 0.00 0.00 0.00 0.00 0.00 0.00 0.00
0.00 0.00 0.00 0.00 0.00 0.01 0.02 0.02 0.02 0.02 0.02 0.01 0.01 0.01 0.01 0.01 0.01 0.01 0.02 0.04 0.06 0.08 0.08 0.05 0.03 0.02 0.02 0.02 0.02 0.02 0.01 0.01 0.01 0.01 0.01 0.01 0.01 0.01 0.01 0.01 0.00 0.00 0.00 0.00 0.00 0.00 0.00 0.00 0.00
0.00 0.00 0.00 0.01 0.01 0.01 0.02 0.02 0.02 0.02 0.01 0.01 0.01 0.01 0.01 0.01 0.01 0.01 0.01 0.02 0.04 0.05 0.08 0.09 0.06 0.03 0.02 0.02 0.02 0.02 0.02 0.02 0.01 0.01 0.01 0.00 0.00 0.00 0.01 0.02 0.02 0.01 0.00 0.00 0.00 0.00 0.00 0.00 0.00
0.01 0.00 0.00 0.00 0.01 0.01 0.01 0.01 0.01 0.01 0.01 0.01 0.01 0.01 0.01 0.01 0.00 0.00 0.00 0.01 0.03 0.03 0.04 0.06 0.09 0.09 0.06 0.04 0.03 0.03 0.03 0.03 0.02 0.02 0.01 0.00 0.00 0.00 0.00 0.00 0.02 0.03 0.02 0.01 0.01 0.01 0.01 0.00 0.00
0.01 0.00 0.00 0.00 0.01 0.01 0.01 0.01 0.00 0.01 0.01 0.00 0.01 0.01 0.01 0.01 0.00 0.00 0.00 0.00 0.01 0.03 0.03 0.04 0.05 0.07 0.08 0.08 0.07 0.05 0.04 0.04 0.02 0.01 0.01 0.00 0.00 0.00 0.00 0.00 0.00 0.01 0.03 0.03 0.02 0.01 0.01 0.00 0.00
0.00 0.00 0.00 0.01 0.01 0.01 0.00 0.01 0.01 0.01 0.00 0.00 0.00 0.01 0.01 0.01 0.00 0.00 0.00 0.00 0.00 0.01 0.02 0.03 0.03 0.03 0.04 0.04 0.04 0.04 0.04 0.04 0.03 0.02 0.01 0.00 0.00 0.00 0.00 0.00 0.00 0.00 0.01 0.02 0.03 0.03 0.02 0.01 0.01
0.00 0.00 0.01 0.01 0.02 0.02 0.00 0.00 0.00 0.00 0.00 0.00 0.00 0.00 0.01 0.00 0.00 0.00 0.00 0.00 0.00 0.00 0.01 0.02 0.02 0.02 0.02 0.03 0.03 0.03 0.04 0.04 0.04 0.04 0.02 0.01 0.01 0.00 0.00 0.00 0.00 0.00 0.01 0.01 0.01 0.02 0.02 0.02 0.02
0.01 0.01 0.02 0.02 0.02 0.01 0.00 0.00 0.00 0.00 0.00 0.00 0.00 0.00 0.00 0.00 0.00 0.00 0.00 0.00 0.00 0.00 0.00 0.01 0.01 0.01 0.01 0.02 0.02 0.02 0.02 0.03 0.03 0.03 0.03 0.03 0.02 0.01 0.01 0.00 0.00 0.00 0.00 0.01 0.01 0.01 0.02 0.02 0.02
0.01 0.01 0.01 0.01 0.00 0.00 0.00 0.00 0.00 0.00 0.00 0.00 0.00 0.00 0.00 0.00 0.00 0.00 0.00 0.00 0.00 0.00 0.00 0.00 0.01 0.01 0.01 0.01 0.01 0.01 0.01 0.02 0.02 0.01 0.01 0.01 0.02 0.02 0.02 0.01 0.01 0.00 0.00 0.00 0.01 0.02 0.02 0.01 0.01
0.01 0.01 0.01 0.01 0.01 0.00 0.00 0.00 0.00 0.00 0.00 0.00 0.00 0.00 0.00 0.00 0.00 0.00 0.00 0.00 0.00 0.00 0.00 0.00 0.00 0.01 0.01 0.01 0.01 0.01 0.01 0.01 0.01 0.01 0.01 0.01 0.01 0.02 0.02 0.02 0.01 0.01 0.01 0.01 0.01 0.01 0.01 0.01 0.01
0.01 0.01 0.02 0.03 0.02 0.01 0.00 0.00 0.00 0.00 0.00 0.00 0.00 0.00 0.00 0.00 0.00 0.00 0.00 0.00 0.00 0.00 0.00 0.00 0.00 0.00 0.01 0.01 0.01 0.01 0.00 0.00 0.00 0.01 0.01 0.01 0.01 0.01 0.01 0.01 0.02 0.02 0.02 0.02 0.01 0.01 0.01 0.01 0.01
0.00 0.01 0.02 0.02 0.01 0.01 0.00 0.00 0.00 0.00 0.00 0.00 0.00 0.00 0.00 0.00 0.00 0.00 0.00 0.00 0.00 0.00 0.00 0.00 0.00 0.00 0.00 0.00 0.00 0.00 0.00 0.00 0.00 0.00 0.00 0.01 0.01 0.01 0.01 0.01 0.01 0.01 0.01 0.01 0.01 0.01 0.01 0.01 0.01
0.00 0.01 0.01 0.02 0.01 0.01 0.00 0.00 0.00 0.00 0.00 0.00 0.00 0.00 0.00 0.00 0.00 0.00 0.00 0.01 0.01 0.00 0.00 0.00 0.00 0.00 0.00 0.00 0.00 0.00 0.00 0.00 0.00 0.00 0.00 0.00 0.01 0.01 0.01 0.01 0.01 0.01 0.01 0.01 0.01 0.01 0.01 0.01 0.01
MSLP
1010.60 1011.11 1011.89 1012.86 1013.89 1014.85 1015.65 1016.23 1016.59 1016.77 1016.86 1016.93 1017.03 1017.19 1017.37 1017.52 1017.58 1017.50 1017.25 1016.88 1016.44 1016.02 1015.71 1015.55 1015.59 1015.79 1016.10 1016.44 1016.75 1016.98 1017.12 1017.19 1017.23 1017.29 1017.40 1017.57 1017.77 1017.99 1018.16 1018.26 1018.25 1018.13 1017.94 1017.71 1017.47 1017.26 1017.08 1016.94 1016.82
1011.12 1011.82 1012.75 1013.79 1014.81 1015.70 1016.36 1016.78 1016.97 1017.01 1016.99 1017.00 1017.08 1017.25 1017.47 1017.66 1017.75 1017.69 1017.46 1017.08 1016.64 1016.21 1015.89 1015.74 1015.79 1016.01 1016.34 1016.72 1017.06 1017.33 1017.52 1017.63 1017.71 1017.79 1017.92 1018.08 1018.28 1018.47 1018.62 1018.68 1018.64 1018.50 1018.30 1018.06 1017.82 1017.61 1017.44 1017.30 1017.19
1011.83 1012.68 1013.69 1014.73 1015.68 1016.43 1016.92 1017.16 1017.19 1017.10 1017.01 1016.99 1017.09 1017.29 1017.56 1017.80 1017.94 1017.91 1017.70 1017.34 1016.90 1016.49 1016.19 1016.07 1016.14 1016.38 1016.74 1017.14 1017.51 1017.80 1018.01 1018.13 1018.22 1018.31 1018.42 1018.56 1018.72 1018.87 1018.96 1018.98 1018.91 1018.76 1018.55 1018.32 1018.11 1017.93 1017.79 1017.69 1017.60
1012.67 1013.61 1014.64 1015.62 1016.44 1017.02 1017.33 1017.39 1017.28 1017.11 1016.97 1016.97 1017.10 1017.37 1017.70 1017.99 1018.17 1018.17 1017.99 1017.66 1017.27 1016.89 1016.64 1016.55 1016.65 1016.92 1017.29 1017.70 1018.07 1018.36 1018.56 1018.68 1018.76 1018.83 1018.92 1019.02 1019.13 1019.22 1019.27 1019.24 1019.14 1018.98 1018.78 1018.59 1018.41 1018.28 1018.18 1018.12 1018.07
1013.56 1014.54 1015.53 1016.41 1017.07 1017.46 1017.60 1017.51 1017.30 1017.09 1016.96 1017.00 1017.20 1017.53 1017.92 1018.26 1018.47 1018.51 1018.36 1018.07 1017.73 1017.42 1017.22 1017.18 1017.33 1017.61 1017.98 1018.37 1018.72 1018.98 1019.16 1019.27 1019.33 1019.38 1019.43 1019.51 1019.58 1019.63 1019.63 1019.57 1019.45 1019.28 1019.10 1018.93 1018.79 1018.70 1018.66 1018.64 1018.62
1014.41 1015.38 1016.29 1017.03 1017.53 1017.76 1017.74 1017.56 1017.31 1017.10 1017.03 1017.14 1017.42 1017.82 1018.25 1018.62 1018.85 1018.91 1018.79 1018.56 1018.28 1018.04 1017.91 1017.94 1018.11 1018.41 1018.76 1019.12 1019.42 1019.64 1019.79 1019.87 1019.91 1019.95 1020.00 1020.06 1020.12 1020.14 1020.12 1020.04 1019.90 1019.74 1019.57 1019.41 1019.30 1019.24 1019.22 1019.21 1019.20
1015.16 1016.08 1016.88 1017.48 1017.82 1017.91 1017.80 1017.58 1017.34 1017.20 1017.22 1017.42 1017.78 1018.23 1018.68 1019.06 1019.29 1019.35 1019.26 1019.08 1018.87 1018.71 1018.66 1018.75 1018.96 1019.25 1019.58 1019.88 1020.13 1020.30 1020.41 1020.47 1020.52 1020.57 1020.64 1020.71 1020.77 1020.80 1020.77 1020.68 1020.53 1020.36 1020.19 1020.04 1019.93 1019.86 1019.84 1019.82 1019.79
1015.77 1016.60 1017.28 1017.74 1017.96 1017.96 1017.81 1017.60 1017.44 1017.40 1017.53 1017.82 1018.24 1018.72 1019.17 1019.52 1019.72 1019.77 1019.70 1019.56 1019.43 1019.36 1019.40 1019.55 1019.79 1020.08 1020.37 1020.62 1020.80 1020.92 1021.00 1021.05 1021.12 1021.20 1021.31 1021.42 1021.51 1021.56 1021.53 1021.44 1021.28 1021.10 1020.90 1020.74 1020.61 1020.52 1020.46 1020.41 1020.34
1016.23 1016.96 1017.52 1017.86 1017.98 1017.94 1017.80 1017.66 1017.60 1017.68 1017.92 1018.30 1018.77 1019.24 1019.65 1019.95 1020.10 1020.12 1020.05 1019.96 1019.91 1019.93 1020.06 1020.27 1020.55 1020.83 1021.09 1021.28 1021.41 1021.48 1021.53 1021.60 1021.69 1021.82 1021.98 1022.14 1022.27 1022.34 1022.32 1022.22 1022.05 1021.84 1021.62 1021.42 1021.26 1021.13 1021.03 1020.92 1020.80
1016.57 1017.20 1017.64 1017.88 1017.94 1017.89 1017.80 1017.75 1017.81 1018.02 1018.37 1018.81 1019.29 1019.73 1020.07 1020.28 1020.36 1020.35 1020.28 1020.23 1020.25 1020.37 1020.58 1020.86 1021.17 1021.46 1021.69 1021.84 1021.92 1021.96 1022.00 1022.06 1022.19 1022.36 1022.57 1022.78 1022.94 1023.02 1023.01 1022.89 1022.70 1022.47 1022.22 1021.99 1021.79 1021.62 1021.47 1021.32 1021.14
1016.84 1017.36 1017.69 1017.86 1017.89 1017.86 1017.84 1017.90 1018.08 1018.41 1018.83 1019.31 1019.77 1020.15 1020.40 1020.52 1020.52 1020.45 1020.39 1020.38 1020.47 1020.67 1020.97 1021.31 1021.65 1021.95 1022.15 1022.27 1022.32 1022.33 1022.36 1022.44 1022.58 1022.79 1023.03 1023.25 1023.43 1023.51 1023.48 1023.35 1023.14 1022.89 1022.62 1022.37 1022.15 1021.95 1021.77 1021.58 1021.36
1017.08 1017.50 1017.74 1017.85 1017.87 1017.87 1017.93 1018.10 1018.39 1018.80 1019.29 1019.77 1020.19 1020.49 1020.65 1020.67 1020.59 1020.48 1020.41 1020.44 1020.59 1020.86 1021.22 1021.62 1021.99 1022.29 1022.48 1022.58 1022.60 1022.60 1022.62 1022.69 1022.85 1023.06 1023.30 1023.53 1023.68 1023.75 1023.70 1023.54 1023.31 1023.04 1022.77 1022.52 1022.30 1022.10 1021.91 1021.71 1021.48
1017.33 1017.65 1017.82 1017.89 1017.92 1017.97 1018.10 1018.36 1018.74 1019.21 1019.72 1020.20 1020.57 1020.79 1020.86 1020.79 1020.65 1020.50 1020.43 1020.48 1020.66 1020.99 1021.39 1021.82 1022.21 1022.51 1022.70 1022.78 1022.79 1022.77 1022.78 1022.85 1022.99 1023.18 1023.40 1023.59 1023.71 1023.73 1023.65 1023.47 1023.23 1022.96 1022.70 1022.47 1022.27 1022.10 1021.92 1021.73 1021.50
1017.61 1017.85 1017.97 1018.01 1018.05 1018.14 1018.34 1018.67 1019.11 1019.63 1020.15 1020.60 1020.92 1021.08 1021.08 1020.95 1020.77 1020.60 1020.52 1020.58 1020.78 1021.12 1021.54 1021.97 1022.35 1022.64 1022.82 1022.89 1022.89 1022.87 1022.86 1022.92 1023.03 1023.19 1023.35 1023.49 1023.55 1023.53 1023.40 1023.20 1022.96 1022.70 1022.47 1022.28 1022.12 1021.98 1021.84 1021.67 1021.45
1017.93 1018.11 1018.19 1018.22 1018.28 1018.41 1018.66 1019.03 1019.51 1020.04 1020.56 1020.99 1021.28 1021.40 1021.36 1021.21 1021.01 1020.84 1020.75 1020.80 1021.00 1021.31 1021.70 1022.11 1022.46 1022.73 1022.89 1022.95 1022.95 1022.92 1022.92 1022.95 1023.03 1023.13 1023.24 1023.30 1023.30 1023.22 1023.06 1022.84 1022.60 1022.38 1022.18 1022.03 1021.91 1021.81 1021.70 1021.55 1021.35
1018.27 1018.41 1018.47 1018.51 1018.59 1018.75 1019.03 1019.43 1019.92 1020.45 1020.95 1021.36 1021.64 1021.76 1021.72 1021.58 1021.39 1021.23 1021.14 1021.17 1021.33 1021.59 1021.92 1022.26 1022.57 1022.80 1022.93 1022.99 1023.00 1022.98 1022.97 1022.99 1023.03 1023.08 1023.12 1023.12 1023.05 1022.92 1022.72 1022.50 1022.27 1022.06 1021.90 1021.78 1021.70 1021.62 1021.53 1021.40 1021.21
1018.64 1018.76 1018.82 1018.87 1018.97 1019.15 1019.45 1019.84 1020.32 1020.83 1021.31 1021.71 1021.99 1022.12 1022.12 1022.02 1021.87 1021.73 1021.65 1021.65 1021.75 1021.94 1022.19 1022.45 1022.68 1022.87 1022.99 1023.05 1023.07 1023.07 1023.07 1023.07 1023.08 1023.08 1023.06 1022.99 1022.86 1022.68 1022.47 1022.23 1022.01 1021.82 1021.68 1021.58 1021.50 1021.43 1021.34 1021.20 1021.01
1019.01 1019.14 1019.22 1019.30 1019.42 1019.61 1019.89 1020.26 1020.69 1021.15 1021.60 1021.98 1022.26 1022.44 1022.49 1022.46 1022.37 1022.27 1022.19 1022.17 1022.21 1022.32 1022.47 1022.64 1022.81 1022.95 1023.06 1023.14 1023.18 1023.21 1023.22 1023.22 1023.20 1023.16 1023.07 1022.95 1022.77 1022.55 1022.31 1022.07 1021.85 1021.67 1021.52 1021.41 1021.32 1021.22 1021.10 1020.94 1020.74
1019.40 1019.55 1019.67 1019.79 1019.93 1020.12 1020.36 1020.67 1021.02 1021.40 1021.78 1022.13 1022.42 1022.63 1022.75 1022.80 1022.79 1022.73 1022.68 1022.64 1022.62 1022.65 1022.72 1022.82 1022.93 1023.04 1023.16 1023.25 1023.33 1023.39 1023.42 1023.42 1023.38 1023.30 1023.16 1022.98 1022.76 1022.51 1022.25 1022.00 1021.77 1021.57 1021.40 1021.26 1021.12 1020.98 1020.81 1020.62 1020.40
1019.78 1020.00 1020.18 1020.35 1020.51 1020.68 1020.86 1021.06 1021.30 1021.57 1021.85 1022.14 1022.41 1022.64 1022.83 1022.96 1023.03 1023.04 1023.01 1022.97 1022.92 1022.90 1022.90 1022.94 1023.02 1023.13 1023.26 1023.39 1023.51 1023.61 1023.66 1023.66 1023.60 1023.47 1023.29 1023.05 1022.79 1022.51 1022.22 1021.95 1021.71 1021.48 1021.28 1021.08 1020.89 1020.68 1020.46 1020.22 1019.98
1020.18 1020.48 1020.75 1020.97 1021.15 1021.27 1021.37 1021.45 1021.53 1021.64 1021.79 1021.99 1022.22 1022.46 1022.69 1022.89 1023.04 1023.12 1023.14 1023.12 1023.07 1023.01 1022.98 1023.00 1023.07 1023.19 1023.35 1023.53 1023.70 1023.83 1023.90 1023.89 1023.81 1023.64 1023.41 1023.12 1022.81 1022.50 1022.19 1021.90 1021.62 1021.36 1021.11 1020.86 1020.59 1020.32 1020.04 1019.77 1019.52
1020.59 1021.00 1021.36 1021.65 1021.83 1021.91 1021.90 1021.82 1021.72 1021.65 1021.64 1021.71 1021.87 1022.09 1022.36 1022.61 1022.84 1022.99 1023.07 1023.08 1023.05 1023.00 1022.97 1022.99 1023.07 1023.22 1023.43 1023.65 1023.86 1024.02 1024.10 1024.09 1023.97 1023.76 1023.48 1023.15 1022.80 1022.45 1022.11 1021.80 1021.49 1021.20 1020.89 1020.58 1020.25 1019.91 1019.59 1019.28 1019.02
1021.02 1021.56 1022.02 1022.37 1022.55 1022.57 1022.43 1022.19 1021.89 1021.62 1021.43 1021.36 1021.43 1021.62 1021.89 1022.20 1022.48 1022.71 1022.85 1022.92 1022.92 1022.89 1022.88 1022.92 1023.03 1023.22 1023.46 1023.72 1023.97 1024.15 1024.23 1024.20 1024.05 1023.80 1023.48 1023.11 1022.72 1022.34 1021.98 1021.64 1021.31 1020.98 1020.63 1020.26 1019.87 1019.48 1019.12 1018.80 1018.53
1021.49 1022.15 1022.70 1023.09 1023.27 1023.21 1022.94 1022.52 1022.03 1021.56 1021.20 1020.99 1020.97 1021.11 1021.38 1021.73 1022.07 1022.37 1022.58 1022.69 1022.74 1022.75 1022.77 1022.83 1022.97 1023.18 1023.45 1023.74 1024.00 1024.19 1024.27 1024.22 1024.04 1023.76 1023.40 1023.00 1022.58 1022.19 1021.81 1021.45 1021.09 1020.72 1020.33 1019.92 1019.49 1019.06 1018.66 1018.33 1018.07
1021.99 1022.74 1023.37 1023.78 1023.92 1023.78 1023.38 1022.79 1022.12 1021.48 1020.95 1020.63 1020.52 1020.63 1020.91 1021.29 1021.69 1022.05 1022.32 1022.49 1022.58 1022.62 1022.66 1022.74 1022.89 1023.11 1023.39 1023.68 1023.94 1024.12 1024.19 1024.12 1023.92 1023.62 1023.24 1022.82 1022.40 1021.99 1021.60 1021.23 1020.86 1020.46 1020.04 1019.58 1019.12 1018.66 1018.24 1017.89 1017.63
1022.50 1023.32 1023.97 1024.37 1024.45 1024.21 1023.67 1022.94 1022.11 1021.33 1020.68 1020.27 1020.12 1020.22 1020.52 1020.94 1021.40 1021.81 1022.14 1022.36 1022.48 1022.54 1022.59 1022.66 1022.81 1023.02 1023.28 1023.55 1023.79 1023.95 1024.00 1023.91 1023.70 1023.39 1023.01 1022.59 1022.17 1021.77 1021.38 1021.00 1020.61 1020.19 1019.74 1019.25 1018.75 1018.27 1017.82 1017.46 1017.19
1023.00 1023.83 1024.46 1024.79 1024.78 1024.42 1023.76 1022.89 1021.95 1021.07 1020.36 1019.91 1019.75 1019.87 1020.20 1020.68 1021.19 1021.67 1022.04 1022.30 1022.45 1022.51 1022.55 1022.61 1022.72 1022.89 1023.11 1023.34 1023.54 1023.67 1023.69 1023.60 1023.38 1023.07 1022.70 1022.30 1021.89 1021.50 1021.12 1020.73 1020.33 1019.89 1019.41 1018.90 1018.38 1017.87 1017.40 1017.02 1016.74
1023.44 1024.22 1024.76 1024.98 1024.84 1024.35 1023.57 1022.60 1021.58 1020.65 1019.92 1019.48 1019.36 1019.53 1019.93 1020.47 1021.05 1021.58 1022.01 1022.30 1022.46 1022.52 1022.54 1022.57 1022.63 1022.74 1022.89 1023.06 1023.21 1023.30 1023.29 1023.18 1022.96 1022.67 1022.31 1021.93 1021.55 1021.17 1020.79 1020.40 1019.99 1019.53 1019.04 1018.50 1017.95 1017.42 1016.93 1016.53 1016.24
1023.77 1024.42 1024.81 1024.88 1024.58 1023.95 1023.05 1022.01 1020.95 1020.02 1019.33 1018.94 1018.89 1019.14 1019.63 1020.25 1020.90 1021.49 1021.97 1022.29 1022.46 1022.53 1022.53 1022.51 1022.51 1022.56 1022.64 1022.74 1022.82 1022.85 1022.81 1022.68 1022.46 1022.17 1021.84 1021.48 1021.11 1020.74 1020.36 1019.97 1019.54 1019.07 1018.56 1018.00 1017.43 1016.88 1016.38 1015.97 1015.65
1023.92 1024.39 1024.59 1024.46 1023.98 1023.21 1022.22 1021.13 1020.07 1019.19 1018.57 1018.28 1018.32 1018.67 1019.25 1019.95 1020.68 1021.33 1021.85 1022.21 1022.41 1022.48 1022.46 1022.42 1022.37 1022.36 1022.37 1022.39 1022.40 1022.38 1022.29 1022.13 1021.90 1021.60 1021.27 1020.92 1020.56 1020.19 1019.81 1019.41 1018.97 1018.48 1017.95 1017.39 1016.81 1016.25 1015.74 1015.31 1014.98
Thickness
5693 5695 5695 5688 5672 5654 5655 5666 5673 5678 5680 5683 5685 5685 5683 5682 5682 5682 5688 5694 5696 5697 5699 5700 5701 5701 5701 5701 5701 5701 5701 5701 5702 5702 5703 5703 5704 5704 5705 5705 5705 5705 5706 5706 5706 5706 5706 5706 5706
5688 5689 5684 5672 5654 5644 5651 5664 5669 5675 5679 5678 5679 5679 5678 5677 5680 5681 5685 5689 5691 5693 5694 5695 5696 5696 5696 5696 5696 5696 5696 5696 5696 5697 5698 5698 5699 5699 5699 5700 5700 5700 5700 5701 5701 5701 5701 5701 5701
5683 5681 5668 5654 5645 5644 5655 5665 5666 5670 5673 5674 5670 5670 5671 5672 5675 5676 5680 5683 5686 5687 5688 5690 5690 5691 5690 5690 5690 5690 5690 5691 5691 5691 5692 5692 5693 5693 5694 5694 5694 5695 5695 5695 5695 5696 5696 5695 5695
5674 5666 5655 5644 5643 5648 5655 5662 5664 5664 5667 5668 5666 5663 5665 5668 5669 5672 5675 5678 5680 5681 5682 5683 5684 5684 5684 5684 5684 5684 5684 5685 5685 5686 5686 5686 5686 5687 5688 5688 5688 5689 5689 5690 5690 5690 5689 5690 5690
5662 5651 5640 5633 5640 5648 5652 5657 5660 5660 5660 5660 5660 5658 5659 5662 5665 5667 5670 5672 5673 5674 5675 5676 5677 5677 5678 5678 5678 5678 5678 5678 5678 5679 5679 5679 5680 5680 5681 5681 5682 5683 5683 5683 5683 5683 5683 5683 5683
5646 5639 5628 5626 5635 5644 5648 5652 5654 5653 5653 5653 5653 5652 5653 5656 5658 5660 5663 5664 5666 5667 5668 5669 5669 5670 5670 5671 5671 5671 5671 5671 5671 5671 5671 5672 5672 5673 5674 5674 5675 5676 5676 5677 5677 5677 5677 5677 5676
5636 5628 5624 5627 5630 5637 5645 5647 5646 5645 5645 5646 5648 5645 5647 5649 5651 5653 5655 5656 5657 5659 5660 5660 5661 5661 5662 5663 5663 5663 5663 5663 5663 5663 5664 5664 5664 5665 5666 5667 5668 5669 5669 5670 5670 5670 5670 5670 5670
5633 5624 5620 5621 5626 5633 5639 5640 5640 5640 5638 5640 5642 5640 5640 5644 5645 5646 5647 5648 5649 5650 5651 5652 5653 5654 5654 5655 5655 5655 5655 5655 5655 5655 5655 5655 5656 5657 5658 5659 5660 5661 5662 5662 5663 5663 5663 5662 5662
5629 5615 5613 5619 5623 5629 5632 5631 5632 5633 5632 5633 5633 5635 5637 5638 5638 5639 5639 5639 5640 5641 5641 5643 5644 5645 5646 5646 5646 5646 5646 5646 5647 5647 5647 5647 5648 5649 5649 5650 5651 5652 5653 5654 5654 5655 5655 5655 5654
5616 5608 5615 5621 5622 5624 5624 5624 5624 5625 5624 5624 5625 5627 5629 5630 5631 5631 5631 5631 5631 5632 5632 5634 5635 5636 5637 5637 5637 5637 5637 5637 5638 5638 5638 5639 5639 5640 5641 5641 5642 5643 5644 5645 5646 5646 5646 5646 5646
5609 5606 5612 5615 5618 5618 5617 5616 5618 5618 5616 5618 5619 5619 5620 5622 5623 5623 5623 5623 5623 5624 5625 5625 5626 5627 5628 5628 5628 5628 5628 5629 5629 5629 5630 5630 5631 5631 5632 5633 5633 5634 5636 5636 5637 5637 5637 5638 5638
5600 5601 5605 5608 5611 5611 5610 5610 5608 5609 5612 5615 5615 5614 5614 5614 5615 5616 5616 5615 5615 5616 5616 5617 5618 5619 5619 5619 5619 5619 5620 5620 5620 5621 5621 5622 5622 5622 5623 5623 5624 5625 5626 5627 5627 5628 5628 5629 5630
5593 5595 5597 5598 5600 5600 5601 5600 5601 5601 5604 5607 5608 5607 5606 5607 5607 5607 5608 5607 5607 5607 5608 5608 5609 5610 5611 5611 5610 5610 5611 5611 5611 5612 5612 5613 5613 5613 5614 5614 5615 5615 5616 5617 5617 5618 5619 5620 5621
5586 5586 5588 5590 5592 5593 5592 5591 5592 5595 5596 5597 5598 5598 5597 5597 5598 5598 5599 5599 5598 5599 5600 5600 5600 5601 5602 5602 5602 5602 5602 5602 5603 5603 5603 5604 5604 5604 5605 5605 5605 5606 5606 5607 5607 5608 5609 5610 5611
5579 5578 5579 5581 5583 5584 5584 5582 5583 5587 5588 5588 5587 5588 5588 5589 5590 5590 5591 5591 5592 5592 5592 5593 5593 5592 5593 5593 5593 5593 5593 5594 5594 5594 5594 5595 5595 5595 5595 5595 5595 5595 5597 5597 5598 5599 5599 5600 5601
5570 5567 5566 5573 5574 5576 5575 5574 5578 5577 5578 5577 5577 5578 5579 5581 5581 5583 5584 5584 5584 5584 5584 5585 5585 5584 5584 5584 5584 5584 5584 5584 5584 5584 5585 5585 5586 5586 5586 5586 5586 5586 5587 5587 5588 5588 5589 5589 5589
5553 5552 5557 5562 5564 5565 5564 5564 5569 5567 5568 5568 5568 5568 5570 5571 5573 5574 5575 5576 5576 5576 5576 5576 5576 5576 5575 5574 5575 5575 5575 5575 5575 5575 5575 5575 5576 5576 5576 5576 5576 5576 5577 5577 5578 5577 5577 5577 5578
5545 5544 5547 5549 5552 5552 5550 5552 5558 5558 5558 5558 5558 5558 5560 5562 5565 5566 5566 5567 5567 5567 5567 5567 5567 5566 5565 5564 5565 5565 5565 5565 5565 5565 5565 5566 5566 5566 5566 5566 5566 5566 5566 5566 5566 5566 5566 5566 5567
5540 5538 5538 5540 5541 5541 5540 5543 5549 5548 5548 5549 5549 5550 5551 5554 5556 5557 5558 5558 5558 5558 5557 5557 5557 5556 5555 5554 5554 5554 5554 5554 5555 5555 5556 5556 5556 5556 5556 5555 5555 5555 5554 5554 5554 5554 5554 5554 5555
5531 5529 5527 5529 5531 5531 5529 5532 5540 5541 5543 5545 5545 5544 5545 5546 5547 5548 5548 5548 5548 5548 5547 5547 5547 5546 5546 5546 5545 5544 5544 5544 5545 5545 5545 5545 5545 5545 5545 5544 5544 5543 5543 5542 5542 5542 5541 5540 5541
5519 5517 5518 5518 5519 5519 5520 5527 5533 5537 5536 5538 5539 5539 5539 5540 5539 5539 5539 5539 5538 5538 5538 5539 5538 5537 5537 5536 5535 5533 5533 5534 5534 5534 5534 5534 5535 5535 5534 5534 5533 5532 5531 5530 5530 5529 5529 5528 5527
5511 5512 5511 5510 5505 5501 5508 5508 5525 5528 5528 5532 5532 5530 5530 5531 5532 5532 5531 5530 5529 5529 5529 5528 5528 5528 5527 5527 5526 5525 5524 5524 5524 5523 5523 5523 5523 5523 5523 5523 5522 5521 5520 5519 5518 5518 5517 5516 5515
5501 5502 5499 5498 5492 5487 5492 5493 5514 5517 5523 5528 5526 5524 5523 5523 5523 5524 5524 5523 5522 5521 5520 5519 5519 5518 5517 5517 5517 5516 5514 5514 5513 5513 5513 5513 5513 5512 5512 5512 5511 5510 5509 5508 5507 5506 5505 5504 5503
5493 5489 5484 5475 5475 5479 5485 5486 5504 5509 5522 5524 5521 5517 5515 5515 5514 5515 5515 5514 5512 5511 5511 5510 5510 5509 5509 5508 5507 5506 5505 5504 5503 5502 5502 5502 5502 5502 5501 5501 5500 5499 5498 5497 5496 5495 5494 5493 5491
5486 5477 5468 5467 5458 5469 5478 5478 5497 5511 5513 5515 5514 5510 5506 5505 5504 5504 5505 5504 5503 5502 5502 5501 5501 5500 5500 5499 5498 5497 5496 5495 5494 5493 5492 5492 5491 5491 5491 5490 5489 5488 5487 5486 5485 5484 5482 5481 5480
5476 5476 5467 5466 5461 5463 5466 5471 5496 5503 5503 5503 5502 5500 5499 5497 5496 5497 5497 5496 5495 5494 5493 5493 5492 5491 5490 5490 5488 5487 5486 5485 5484 5483 5483 5482 5481 5481 5480 5479 5479 5478 5476 5475 5474 5473 5471 5470 5469
5468 5462 5463 5449 5440 5447 5459 5465 5484 5495 5495 5495 5493 5492 5491 5491 5490 5489 5488 5488 5487 5486 5485 5485 5484 5483 5482 5481 5479 5478 5477 5476 5475 5474 5473 5472 5471 5471 5470 5469 5468 5467 5466 5465 5464 5463 5461 5460 5459
5465 5456 5447 5445 5448 5453 5459 5461 5477 5491 5491 5489 5485 5484 5484 5483 5482 5481 5480 5479 5478 5478 5476 5475 5475 5474 5472 5471 5470 5469 5468 5467 5465 5464 5463 5462 5462 5461 5460 5459 5458 5457 5456 5455 5454 5452 5451 5450 5448
5451 5447 5444 5436 5437 5440 5447 5469 5479 5482 5484 5481 5479 5477 5476 5475 5474 5473 5471 5470 5469 5468 5467 5466 5465 5464 5463 5462 5461 5459 5458 5457 5456 5455 5454 5453 5452 5451 5450 5449 5447 5446 5445 5444 5443 5442 5441 5439 5438
5443 5444 5437 5439 5431 5419 5423 5458 5476 5471 5471 5470 5469 5469 5468 5467 5465 5463 5462 5462 5461 5459 5458 5457 5456 5455 5455 5453 5451 5450 5449 5448 5446 5446 5445 5444 5443 5442 5441 5439 5438 5437 5436 5434 5433 5432 5431 5429 5427